Regional Weather Roundup
Issued by NWS

Home | Current Version | Previous Version | Text Only | Print | Product List | Glossary On
Versions: 1 2 3 4 5 6 7 8 9 10 11 12 13 14 15 16 17 18 19 20 21 22 23 24 25 26 27 28 29 30 31 32 33 34 35 36 37 38 39 40 41 42 43 44 45 46 47 48 49 50
687
ASUS43 KDMX 221206
RWRIA

WEATHER ROUNDUP FOR IOWA
NATIONAL WEATHER SERVICE DES MOINES IA
600 AM CST WED NOV 22 2017

NOTE: "FAIR" INDICATES FEW OR NO CLOUDS BELOW 12,000 FEET WITH NO
SIGNIFICANT WEATHER AND/OR OBSTRUCTIONS TO VISIBILITY.

* - THESE STATIONS ARE NOT NWS STATIONS...THUS NOT UNDER NWS
QUALITY CONTROL.  THEY ALSO DO NOT REPORT WEATHER SUCH
AS PRECIPITATION OR FOG.

IAZ001>003-012>014-020>022-031>034-043>046-221300-
   NORTHWEST IOWA

CITY           SKY/WX    TMP DP  RH WIND       PRES   REMARKS
CARROLL *      CLOUDY    10   7  85 CALM      30.36F
CHEROKEE *     CLOUDY    10   9  92 CALM      30.34F
DENISON *      CLOUDY    12  10  92 CALM      30.37F
LE MARS *      CLOUDY    10   7  85 S5        30.35S WCI   2
ORANGE CITY *  CLOUDY    12   9  85 CALM      30.31F
SHELDON *      CLOUDY     7   3  85 SE5       30.30F WCI  -2
SIOUX CITY     CLOUDY    10   6  84 E5        30.37F WCI   2
6HR MIN TEMP:   9; 6HR MAX TEMP:  16;

SPENCER        CLOUDY     7   3  84 SW3       30.33F
6HR MIN TEMP:   7; 6HR MAX TEMP:  12;

STORM LAKE *   CLOUDY    10   7  85 SW5       30.33F WCI   2
$$

IAZ055>058-069>071-079>083-090>094-221300-
   SOUTHWEST IOWA

CITY           SKY/WX    TMP DP  RH WIND       PRES   REMARKS
ATLANTIC *     CLOUDY    12  10  92 CALM      30.37F
AUDUBON *      CLOUDY    10   7  85 CALM      30.35F
CLARINDA *       N/A     14  12  92 CALM      30.42F
COUNCIL BLFS * CLOUDY    18  12  79 SW3       30.37S
CRESTON *      CLOUDY    16  12  86 NW3       30.39S
HARLAN  *      CLOUDY    10   9  92 CALM      30.40F
RED OAK *      CLOUDY    12  10  92 CALM      30.39F
SHENANDOAH *   CLOUDY    14  10  85 CALM      30.41F
$$

IAZ047>049-059>061-072>074-084-221300-
   CENTRAL IOWA

CITY           SKY/WX    TMP DP  RH WIND       PRES   REMARKS
AMES           CLOUDY    13  10  88 W6        30.38S WCI   4
6HR MIN TEMP:  13; 6HR MAX TEMP:  22;

ANKENY *       CLOUDY    18  10  73 W3        30.41S
BOONE *        CLOUDY    14  10  85 W5        30.36S WCI   6
CHARITON *     PTCLDY    16  12  86 NW6       30.38S WCI   7
DES MOINES     CLOUDY    17  10  74 NW3       30.39F
6HR MIN TEMP:  17; 6HR MAX TEMP:  23;

GRINNELL*      CLOUDY    14  11  88 NW5       30.39S WCI   6
KNOXVILLE *    PTCLDY    16   9  73 NW5       30.38R WCI   9
MARSHALLTOWN   PTCLDY    13  10  88 W3        30.36F
6HR MIN TEMP:  12; 6HR MAX TEMP:  20;

NEWTON *       PTCLDY    14  10  85 W3        30.39S
PELLA *        CLOUDY    16  11  80 NW5       30.41R WCI   9
PERRY *          N/A     10   8  88 W5        30.38F WCI   2
$$

IAZ004>006-015-016-023>025-035-036-221300-
   NORTH CENTRAL IOWA

CITY           SKY/WX    TMP DP  RH WIND       PRES   REMARKS
ALGONA *       CLOUDY    12   9  85 CALM      30.32F
CLARION *      CLOUDY    12  10  92 CALM      30.35F
ESTHERVILLE    CLOUDY     9   6  88 SW6       30.32F WCI  -1
6HR MIN TEMP:   6; 6HR MAX TEMP:  14;

FORT DODGE *   CLOUDY    13   9  84 CALM      30.36F
MASON CITY     CLOUDY    12   7  80 W3        30.34F
6HR MIN TEMP:  11; 6HR MAX TEMP:  18;

FOREST CITY *    N/A     12  10  92 CALM      30.33F
WEBSTER CITY * CLOUDY    12   7  79 W6        30.35S WCI   3
IOWA FALLS *     N/A     13  10  86 W3        30.36F
$$

IAZ007>011-017>019-026>030-037>042-050>054-066-221300-
   NORTHEAST IOWA

CITY           SKY/WX    TMP DP  RH WIND       PRES   REMARKS
CEDAR RAPIDS   CLOUDY    15  11  83 W3        30.35F
6HR MIN TEMP:  12; 6HR MAX TEMP:  18;

CHARLES CITY *   N/A     14  12  92 W5        30.34S WCI   6
CLINTON *      CLOUDY    14  11  87 W5        30.37R WCI   6
DECORAH *      CLOUDY    16  12  86 NW3       30.32R
DUBUQUE        CLOUDY    15  11  83 S5        30.32F WCI   8
6HR MIN TEMP:  15; 6HR MAX TEMP:  21;

MONTICELLO *   CLOUDY    14  10  85 CALM      30.35S
OELWEIN *      CLEAR     12  12 100 W7        30.34S WCI   2
WATERLOO       CLOUDY    15  10  80 W6        30.37S WCI   6
6HR MIN TEMP:  14; 6HR MAX TEMP:  20;

$$

IAZ064-065-067-068-078-221300-
   EAST CENTRAL IOWA

CITY           SKY/WX    TMP DP  RH WIND       PRES   REMARKS
DAVENPORT      PTCLDY    16  12  84 W5        30.39S WCI   9
6HR MIN TEMP:  16; 6HR MAX TEMP:  21;

IOWA CITY      PTCLDY    19  13  77 NW5       30.40S WCI  12
6HR MIN TEMP:  19; 6HR MAX TEMP:  24;

MT. PLEASANT * CLOUDY    18  13  80 NW7       30.40R WCI   9
MUSCATINE *    PTCLDY    19  14  79 W3        30.40S
QUAD CITIES    PTCLDY    19  12  74 W3        30.38S
6HR MIN TEMP:  19; 6HR MAX TEMP:  24;

$$

IAZ062-063-075>077-085>089-095>099-221300-
   SOUTHEAST IOWA

CITY           SKY/WX    TMP DP  RH WIND       PRES   REMARKS
BURLINGTON     CLOUDY    19  14  81 NW6       30.38S WCI  11
6HR MIN TEMP:  19; 6HR MAX TEMP:  24;

FAIRFIELD *    CLOUDY    16  10  79 NW6       30.39S WCI   7
FORT MADISON * CLOUDY    18  14  86 W5        30.40R WCI  11
KEOKUK *       CLOUDY    19  14  79 NW5       30.40R WCI  13
OSKALOOSA *      N/A     15  11  87 NW3       30.39F
OTTUMWA        CLOUDY    15   9  76 NW8       30.38F WCI   4
6HR MIN TEMP:  15; 6HR MAX TEMP:  21;

WASHINGTON *   CLOUDY    16  14  93 W6        30.40S WCI   7
$$

ABBREVIATIONS USED IN REMARKS
   TC - TEMPERATURES IN CELSIUS
  WCI - WIND CHILL INDEX
   HX - HEAT INDEX
  VSB - VISIBILITY
$$





USA.gov is the U.S. government's official web portal to all federal, state and local government web resources and services.